Location: Bruderhein
(53.8035°N, 112.9265°W)
Time: 05:23:06
(UTC+00:00)

EO-88 - Visible Passes

Search period start: 23 March 2023 00:00
Search period end: 02 April 2023 00:00
Orbit: 400 x 403 km, 97.2° (Epoch: 22 March)

Date Brightness Start Highest point End Pass type
(mag) Time Alt. Az. Time Alt. Az. Time Alt. Az.
23 Mar ? 04:12:58 19° NNE 04:12:58 19° NNE 04:14:19 10° N visible
23 Mar ? 05:45:36 12° NW 05:45:36 12° NW 05:46:01 10° NW visible
24 Mar ? 04:55:11 24° NNW 04:55:11 24° NNW 04:56:34 10° NNW visible
25 Mar ? 04:04:37 19° NE 04:04:37 19° NE 04:06:05 10° NNE visible
25 Mar ? 05:37:14 16° NW 05:37:14 16° NW 05:38:04 10° NNW visible
26 Mar ? 04:46:29 27° N 04:46:29 27° N 04:48:05 10° N visible
27 Mar ? 03:55:33 17° NE 03:55:33 17° NE 03:57:04 10° NNE visible
27 Mar ? 05:28:09 20° NW 05:28:09 20° NW 05:29:20 10° NNW visible
28 Mar ? 04:37:03 30° NNE 04:37:03 30° NNE 04:38:51 10° N visible
29 Mar ? 03:45:46 15° NE 03:45:46 15° NE 03:47:15 10° NNE visible
29 Mar ? 05:18:21 25° NW 05:18:21 25° NW 05:19:52 10° NNW visible
30 Mar ? 04:26:54 29° NNE 04:26:54 29° NNE 04:28:53 10° N visible
30 Mar ? 05:59:28 12° WNW 05:59:28 12° WNW 06:00:00 10° NW visible
31 Mar ? 03:35:17 12° ENE 03:35:18 12° ENE 03:36:31 10° NE visible
31 Mar ? 05:07:50 32° NNW 05:07:50 32° NNW 05:09:40 10° NNW visible
01 Apr ? 04:16:02 26° NE 04:16:02 26° NE 04:18:10 10° N visible
01 Apr ? 05:48:35 16° WNW 05:48:35 16° WNW 05:49:39 10° NW visible
